SWA3221 KORF-KBNA

Flight info

Callsign SWA3221
Flight time 1h 31m
Altitude 40000
Route NUTIY1 RDU SHPRD EDDDY SWFFT3
Aircraft B38M/M-SADE2E3GHIJ4J7P2RWZ/LB1D1

Departure

Time 2026-04-26 16:45
Airport Norfolk International Airport (KORF)

Arrival

Time 2026-04-26 18:16
Airport Nashville International Airport (KBNA)
Time Latitude Longitude Altitude Speed Heading
2026-04-26 16:31 36.89965 -76.20217 5 ft 0 kts 192°
2026-04-26 16:37 36.89980 -76.20213 5 ft 3 kts 192°
2026-04-26 16:38 36.89998 -76.20208 5 ft 3 kts 192°
2026-04-26 16:38 36.90008 -76.20206 5 ft 0 kts 192°
2026-04-26 16:41 36.90000 -76.20207 5 ft 2 kts 178°
2026-04-26 16:41 36.89994 -76.20197 5 ft 5 kts 117°
2026-04-26 16:41 36.90003 -76.20089 5 ft 21 kts 83°
2026-04-26 16:42 36.89984 -76.19886 5 ft 26 kts 109°
2026-04-26 16:42 36.89859 -76.19817 7 ft 23 kts 216°
2026-04-26 16:42 36.89726 -76.19938 7 ft 25 kts 218°
2026-04-26 16:42 36.89586 -76.20080 6 ft 27 kts 219°
2026-04-26 16:43 36.89431 -76.20230 6 ft 29 kts 217°
2026-04-26 16:43 36.89265 -76.20389 7 ft 31 kts 218°
2026-04-26 16:43 36.89092 -76.20535 6 ft 31 kts 212°
2026-04-26 16:43 36.88911 -76.20690 6 ft 33 kts 217°
2026-04-26 16:44 36.88730 -76.20864 5 ft 28 kts 217°
2026-04-26 16:44 36.88623 -76.20843 4 ft 19 kts 100°
2026-04-26 16:44 36.88736 -76.20686 7 ft 51 kts 37°
2026-04-26 16:44 36.89266 -76.20177 11 ft 138 kts 38°
2026-04-26 16:45 36.90140 -76.19300 543 ft 173 kts 35°
2026-04-26 16:45 36.91166 -76.18397 1676 ft 185 kts 34°
2026-04-26 16:45 36.92250 -76.17457 2540 ft 202 kts 34°
2026-04-26 16:45 36.93500 -76.16354 3087 ft 237 kts 30°
2026-04-26 16:46 36.95151 -76.15812 3725 ft 260 kts 353°
2026-04-26 16:46 36.96793 -76.16645 4873 ft 256 kts 316°
2026-04-26 16:46 36.97756 -76.18497 5942 ft 260 kts 283°
2026-04-26 16:46 36.97696 -76.20726 7082 ft 261 kts 252°
2026-04-26 16:47 36.97159 -76.22923 8116 ft 268 kts 257°
2026-04-26 16:47 36.96737 -76.25214 9183 ft 272 kts 257°
2026-04-26 16:47 36.96315 -76.27540 10228 ft 277 kts 257°
2026-04-26 16:47 36.95883 -76.29961 10902 ft 295 kts 257°
2026-04-26 16:48 36.95421 -76.32549 11447 ft 314 kts 257°
2026-04-26 16:48 36.94927 -76.35269 12121 ft 327 kts 257°
2026-04-26 16:48 36.94617 -76.38111 12989 ft 331 kts 270°
2026-04-26 16:48 36.94615 -76.41016 13896 ft 337 kts 270°
2026-04-26 16:49 36.94602 -76.43928 14643 ft 342 kts 270°
2026-04-26 16:49 36.94587 -76.46919 15428 ft 346 kts 270°
2026-04-26 16:49 36.94571 -76.49946 16192 ft 351 kts 270°
2026-04-26 16:49 36.94517 -76.53009 16933 ft 356 kts 264°
2026-04-26 16:50 36.93838 -76.55987 17677 ft 361 kts 245°
2026-04-26 16:50 36.92586 -76.58737 18372 ft 366 kts 240°
2026-04-26 16:50 36.91268 -76.61485 18992 ft 371 kts 240°
2026-04-26 16:50 36.89922 -76.64244 19647 ft 373 kts 239°
2026-04-26 16:51 36.88555 -76.67012 20292 ft 376 kts 239°
2026-04-26 16:51 36.87170 -76.69799 20939 ft 379 kts 239°
2026-04-26 16:51 36.85774 -76.72597 21583 ft 381 kts 239°
2026-04-26 16:51 36.84362 -76.75424 22204 ft 384 kts 239°
2026-04-26 16:52 36.82944 -76.78258 22812 ft 387 kts 239°
2026-04-26 16:52 36.81996 -76.80153 23221 ft 389 kts 239°
2026-04-26 16:52 36.80069 -76.83999 23958 ft 393 kts 239°
2026-04-26 16:52 36.78614 -76.86901 24472 ft 395 kts 239°
2026-04-26 16:53 36.77175 -76.89768 24973 ft 397 kts 239°
2026-04-26 16:53 36.75706 -76.92693 25461 ft 399 kts 239°
2026-04-26 16:53 36.74228 -76.95631 25951 ft 401 kts 239°
2026-04-26 16:53 36.72742 -76.98583 26424 ft 403 kts 239°
2026-04-26 16:54 36.71279 -77.01576 26896 ft 405 kts 241°
2026-04-26 16:54 36.69878 -77.04629 27352 ft 407 kts 241°
2026-04-26 16:54 36.68457 -77.07700 27813 ft 409 kts 241°
2026-04-26 16:54 36.67028 -77.10778 28264 ft 411 kts 241°
2026-04-26 16:55 36.65591 -77.13866 28697 ft 414 kts 241°
2026-04-26 16:55 36.64144 -77.16975 29119 ft 416 kts 241°
2026-04-26 16:55 36.62687 -77.20098 29540 ft 418 kts 241°
2026-04-26 16:55 36.61220 -77.23241 29948 ft 421 kts 242°
2026-04-26 16:56 36.58265 -77.29563 30659 ft 425 kts 242°
2026-04-26 16:56 36.56774 -77.32748 31007 ft 427 kts 242°
2026-04-26 16:56 36.55276 -77.35946 31326 ft 429 kts 242°
2026-04-26 16:57 36.53764 -77.39169 31652 ft 431 kts 242°
2026-04-26 16:57 36.52251 -77.42393 31974 ft 434 kts 242°
2026-04-26 16:57 36.49207 -77.48871 32839 ft 433 kts 242°
2026-04-26 16:58 36.47691 -77.52098 33288 ft 431 kts 242°
2026-04-26 16:58 36.46690 -77.54230 33585 ft 431 kts 242°
2026-04-26 16:58 36.43166 -77.61720 34562 ft 428 kts 242°
2026-04-26 16:59 36.41662 -77.64912 34913 ft 428 kts 243°
2026-04-26 16:59 36.38654 -77.71285 35574 ft 428 kts 243°
2026-04-26 17:00 36.35661 -77.77616 36217 ft 427 kts 243°
2026-04-26 17:00 36.32654 -77.83965 36813 ft 427 kts 243°
2026-04-26 17:00 36.31149 -77.87139 37122 ft 427 kts 243°
2026-04-26 17:01 36.29643 -77.90309 37412 ft 426 kts 243°
2026-04-26 17:01 36.28141 -77.93468 37698 ft 426 kts 244°
2026-04-26 17:01 36.26633 -77.96636 37965 ft 425 kts 244°
2026-04-26 17:01 36.25128 -77.99794 38237 ft 425 kts 244°
2026-04-26 17:02 36.23624 -78.02948 38491 ft 425 kts 244°
2026-04-26 17:02 36.22121 -78.06096 38747 ft 424 kts 244°
2026-04-26 17:02 36.20620 -78.09237 38961 ft 424 kts 244°
2026-04-26 17:02 36.19116 -78.12380 39145 ft 424 kts 244°
2026-04-26 17:03 36.17614 -78.15519 39317 ft 424 kts 244°
2026-04-26 17:03 36.16108 -78.18662 39489 ft 425 kts 244°
2026-04-26 17:03 36.14601 -78.21804 39664 ft 425 kts 244°
2026-04-26 17:03 36.13093 -78.24946 39834 ft 425 kts 244°
2026-04-26 17:04 36.11583 -78.28089 39997 ft 425 kts 243°
2026-04-26 17:04 36.10074 -78.31230 40088 ft 425 kts 244°
2026-04-26 17:04 36.07075 -78.37455 40108 ft 424 kts 244°
2026-04-26 17:05 36.04058 -78.43708 40112 ft 424 kts 244°
2026-04-26 17:05 36.01031 -78.49972 40103 ft 424 kts 244°
2026-04-26 17:06 35.98008 -78.56214 40095 ft 424 kts 243°
2026-04-26 17:06 35.94996 -78.62423 40077 ft 424 kts 243°
2026-04-26 17:07 35.91963 -78.68665 40083 ft 424 kts 243°
2026-04-26 17:07 35.88933 -78.74890 40081 ft 423 kts 243°
2026-04-26 17:08 35.87647 -78.78119 40068 ft 415 kts 257°
2026-04-26 17:08 35.87044 -78.81567 40093 ft 411 kts 262°
2026-04-26 17:08 35.86052 -78.88544 40084 ft 413 kts 264°
2026-04-26 17:09 35.85305 -78.94346 40082 ft 412 kts 264°
2026-04-26 17:09 35.84291 -79.02505 40074 ft 411 kts 264°
2026-04-26 17:10 35.83433 -79.09423 40075 ft 411 kts 264°
2026-04-26 17:10 35.82566 -79.16386 40064 ft 411 kts 264°
2026-04-26 17:11 35.81696 -79.23343 40066 ft 411 kts 264°
2026-04-26 17:11 35.80822 -79.30295 40065 ft 410 kts 264°
2026-04-26 17:12 35.79504 -79.40716 40069 ft 410 kts 264°
2026-04-26 17:13 35.78177 -79.51135 40074 ft 410 kts 263°
2026-04-26 17:14 35.76842 -79.61540 40076 ft 410 kts 263°
2026-04-26 17:14 35.75505 -79.71894 40068 ft 409 kts 263°
2026-04-26 17:15 35.74154 -79.82280 40079 ft 409 kts 263°
2026-04-26 17:16 35.73249 -79.89195 40085 ft 409 kts 263°
2026-04-26 17:16 35.72341 -79.96105 40082 ft 409 kts 263°
2026-04-26 17:17 35.71430 -80.03010 40076 ft 408 kts 263°
2026-04-26 17:17 35.70514 -80.09912 40070 ft 408 kts 263°
2026-04-26 17:18 35.69604 -80.16746 40075 ft 408 kts 263°
2026-04-26 17:18 35.68682 -80.23632 40069 ft 408 kts 263°
2026-04-26 17:19 35.67295 -80.33944 40071 ft 407 kts 263°
2026-04-26 17:19 35.66367 -80.40816 40064 ft 407 kts 263°
2026-04-26 17:20 35.65746 -80.45408 40064 ft 406 kts 264°
2026-04-26 17:20 35.65835 -80.51115 40074 ft 402 kts 276°
2026-04-26 17:20 35.66085 -80.54553 40061 ft 403 kts 276°
2026-04-26 17:21 35.66634 -80.61379 40065 ft 403 kts 276°
2026-04-26 17:21 35.67218 -80.68237 40062 ft 403 kts 277°
2026-04-26 17:22 35.67806 -80.75104 40058 ft 403 kts 277°
2026-04-26 17:22 35.68389 -80.81960 40061 ft 403 kts 277°
2026-04-26 17:23 35.68968 -80.88815 40070 ft 403 kts 276°
2026-04-26 17:23 35.69543 -80.95673 40063 ft 403 kts 276°
2026-04-26 17:24 35.70018 -81.01363 40059 ft 403 kts 276°
2026-04-26 17:24 35.70586 -81.08219 40060 ft 402 kts 276°
2026-04-26 17:25 35.71150 -81.15069 40058 ft 402 kts 276°
2026-04-26 17:25 35.71800 -81.23036 40037 ft 402 kts 276°
2026-04-26 17:26 35.72265 -81.28769 40034 ft 402 kts 276°
2026-04-26 17:26 35.72817 -81.35622 40042 ft 402 kts 276°
2026-04-26 17:27 35.73361 -81.42415 40035 ft 402 kts 276°
2026-04-26 17:27 35.73904 -81.49257 40037 ft 402 kts 276°
2026-04-26 17:28 35.74442 -81.56091 40067 ft 401 kts 276°
2026-04-26 17:28 35.74978 -81.62934 40075 ft 401 kts 276°
2026-04-26 17:29 35.75419 -81.68613 40070 ft 401 kts 276°
2026-04-26 17:29 35.76035 -81.76598 40065 ft 400 kts 276°
2026-04-26 17:30 35.76557 -81.83418 40049 ft 400 kts 276°
2026-04-26 17:30 35.77075 -81.90241 40032 ft 400 kts 276°
2026-04-26 17:31 35.77589 -81.97055 40020 ft 399 kts 276°
2026-04-26 17:31 35.78098 -82.03864 40004 ft 399 kts 276°
2026-04-26 17:32 35.78603 -82.10671 40007 ft 400 kts 276°
2026-04-26 17:32 35.79105 -82.17489 40000 ft 399 kts 276°
2026-04-26 17:33 35.79599 -82.24243 39989 ft 399 kts 276°
2026-04-26 17:34 35.80338 -82.34455 39995 ft 397 kts 276°
2026-04-26 17:34 35.80824 -82.41240 40074 ft 398 kts 277°
2026-04-26 17:35 35.81313 -82.48118 39995 ft 406 kts 278°
2026-04-26 17:35 35.81803 -82.55066 39997 ft 407 kts 278°
2026-04-26 17:36 35.82289 -82.62026 40001 ft 407 kts 278°
2026-04-26 17:36 35.82772 -82.68980 39999 ft 407 kts 278°
2026-04-26 17:37 35.83249 -82.75930 40004 ft 407 kts 278°
2026-04-26 17:37 35.83724 -82.82889 40006 ft 407 kts 278°
2026-04-26 17:38 35.84424 -82.93276 40009 ft 407 kts 278°
2026-04-26 17:38 35.84889 -83.00242 40008 ft 407 kts 278°
2026-04-26 17:39 35.85348 -83.07198 40013 ft 407 kts 278°
2026-04-26 17:39 35.85804 -83.14159 40009 ft 407 kts 278°
2026-04-26 17:40 35.86180 -83.19938 40043 ft 407 kts 278°
2026-04-26 17:40 35.86704 -83.28069 40034 ft 407 kts 278°
2026-04-26 17:41 35.87147 -83.35015 40055 ft 407 kts 278°
2026-04-26 17:41 35.87588 -83.41985 40062 ft 407 kts 278°
2026-04-26 17:42 35.88020 -83.48890 40051 ft 406 kts 278°
2026-04-26 17:42 35.88451 -83.55835 40048 ft 406 kts 278°
2026-04-26 17:43 35.88879 -83.62781 40045 ft 406 kts 278°
2026-04-26 17:43 35.89304 -83.69722 40039 ft 406 kts 278°
2026-04-26 17:44 35.89724 -83.76665 40039 ft 405 kts 278°
2026-04-26 17:44 35.90141 -83.83607 40045 ft 405 kts 278°
2026-04-26 17:45 35.90240 -83.90562 40046 ft 410 kts 265°
2026-04-26 17:45 35.89166 -83.97463 40030 ft 413 kts 264°
2026-04-26 17:46 35.88041 -84.04407 40034 ft 413 kts 264°
2026-04-26 17:46 35.86900 -84.11347 40034 ft 413 kts 264°
2026-04-26 17:47 35.85940 -84.17158 40027 ft 412 kts 264°
2026-04-26 17:47 35.84607 -84.25198 40022 ft 412 kts 264°
2026-04-26 17:48 35.83457 -84.32112 40020 ft 411 kts 264°
2026-04-26 17:48 35.82302 -84.39026 40032 ft 412 kts 264°
2026-04-26 17:49 35.81142 -84.45947 40042 ft 412 kts 264°
2026-04-26 17:49 35.79987 -84.52808 40045 ft 411 kts 264°
2026-04-26 17:50 35.78824 -84.59698 40004 ft 410 kts 264°
2026-04-26 17:50 35.78244 -84.63123 39280 ft 407 kts 264°
2026-04-26 17:50 35.77667 -84.66529 38372 ft 405 kts 264°
2026-04-26 17:51 35.77093 -84.69904 37394 ft 401 kts 264°
2026-04-26 17:51 35.76523 -84.73251 36467 ft 398 kts 264°
2026-04-26 17:51 35.75957 -84.76570 35588 ft 394 kts 264°
2026-04-26 17:51 35.75397 -84.79845 34748 ft 388 kts 264°
2026-04-26 17:52 35.74837 -84.83118 33900 ft 394 kts 264°
2026-04-26 17:52 35.74268 -84.86433 32919 ft 397 kts 263°
2026-04-26 17:52 35.73696 -84.89761 31872 ft 396 kts 263°
2026-04-26 17:52 35.73122 -84.93103 30577 ft 401 kts 263°
2026-04-26 17:53 35.72541 -84.96466 29438 ft 401 kts 263°
2026-04-26 17:53 35.71964 -84.99807 28392 ft 398 kts 263°
2026-04-26 17:53 35.71390 -85.03126 27432 ft 394 kts 262°
2026-04-26 17:54 35.70254 -85.09675 25603 ft 388 kts 262°
2026-04-26 17:54 35.69700 -85.12865 24725 ft 386 kts 262°
2026-04-26 17:54 35.69133 -85.16125 23842 ft 384 kts 262°
2026-04-26 17:54 35.68574 -85.19320 22932 ft 381 kts 261°
2026-04-26 17:55 35.67999 -85.22457 22060 ft 378 kts 261°
2026-04-26 17:55 35.67425 -85.25586 21255 ft 373 kts 260°
2026-04-26 17:55 35.66858 -85.28680 20622 ft 365 kts 260°
2026-04-26 17:55 35.66301 -85.31724 20530 ft 367 kts 260°
2026-04-26 17:56 35.65737 -85.34795 20410 ft 369 kts 260°
2026-04-26 17:56 35.64607 -85.40939 20202 ft 368 kts 260°
2026-04-26 17:57 35.63475 -85.47074 20002 ft 367 kts 259°
2026-04-26 17:57 35.62909 -85.50134 19897 ft 366 kts 259°
2026-04-26 17:57 35.62345 -85.53179 19790 ft 366 kts 259°
2026-04-26 17:57 35.61779 -85.56231 19692 ft 365 kts 259°
2026-04-26 17:58 35.60085 -85.65332 19386 ft 364 kts 259°
2026-04-26 17:59 35.58956 -85.71379 19220 ft 363 kts 259°
2026-04-26 17:59 35.58391 -85.74402 19168 ft 363 kts 259°
2026-04-26 17:59 35.57825 -85.77420 19123 ft 362 kts 259°
2026-04-26 17:59 35.57258 -85.80437 19077 ft 362 kts 259°
2026-04-26 18:00 35.56699 -85.83414 19032 ft 362 kts 259°
2026-04-26 18:00 35.56137 -85.86467 18887 ft 360 kts 261°
2026-04-26 18:00 35.56100 -85.89487 18392 ft 359 kts 281°
2026-04-26 18:00 35.56911 -85.92394 17939 ft 356 kts 299°
2026-04-26 18:01 35.58332 -85.94821 17442 ft 355 kts 309°
2026-04-26 18:01 35.59936 -85.97125 16925 ft 355 kts 311°
2026-04-26 18:01 35.61573 -85.99402 16396 ft 355 kts 311°
2026-04-26 18:01 35.63225 -86.01663 15882 ft 356 kts 312°
2026-04-26 18:02 35.64888 -86.03919 15361 ft 356 kts 312°
2026-04-26 18:02 35.65450 -86.04678 15190 ft 356 kts 312°
2026-04-26 18:02 35.68242 -86.08430 14255 ft 357 kts 313°
2026-04-26 18:02 35.69838 -86.10710 13745 ft 346 kts 304°
2026-04-26 18:03 35.70762 -86.13389 13158 ft 339 kts 281°
2026-04-26 18:03 35.70876 -86.16227 12699 ft 328 kts 269°
2026-04-26 18:03 35.70826 -86.18990 12249 ft 318 kts 269°
2026-04-26 18:03 35.70770 -86.21672 11812 ft 310 kts 269°
2026-04-26 18:04 35.70706 -86.24294 11357 ft 303 kts 269°
2026-04-26 18:04 35.70639 -86.26860 10938 ft 297 kts 268°
2026-04-26 18:04 35.70571 -86.29382 10503 ft 292 kts 268°
2026-04-26 18:05 35.70434 -86.34304 9650 ft 284 kts 268°
2026-04-26 18:05 35.70368 -86.36711 9211 ft 280 kts 268°
2026-04-26 18:05 35.70300 -86.39104 8781 ft 276 kts 268°
2026-04-26 18:05 35.70233 -86.41449 8397 ft 273 kts 268°
2026-04-26 18:06 35.70166 -86.43752 8004 ft 274 kts 268°
2026-04-26 18:06 35.70099 -86.46122 7597 ft 280 kts 268°
2026-04-26 18:06 35.70030 -86.48537 7181 ft 285 kts 268°
2026-04-26 18:06 35.69959 -86.51002 6761 ft 290 kts 268°
2026-04-26 18:07 35.69885 -86.53493 6314 ft 291 kts 268°
2026-04-26 18:07 35.69886 -86.55946 5946 ft 282 kts 280°
2026-04-26 18:07 35.70634 -86.58064 5715 ft 265 kts 312°
2026-04-26 18:07 35.71558 -86.59022 5595 ft 251 kts 333°
2026-04-26 18:08 35.73674 -86.59577 5417 ft 226 kts
2026-04-26 18:08 35.75176 -86.59289 5298 ft 216 kts
2026-04-26 18:08 35.76642 -86.59639 5229 ft 218 kts 337°
2026-04-26 18:08 35.78010 -86.60464 5209 ft 220 kts 336°
2026-04-26 18:09 35.79360 -86.61297 5010 ft 222 kts 335°
2026-04-26 18:09 35.80731 -86.62158 4831 ft 221 kts 335°
2026-04-26 18:09 35.82088 -86.63026 4609 ft 219 kts 334°
2026-04-26 18:09 35.83429 -86.63894 4497 ft 218 kts 334°
2026-04-26 18:10 35.84775 -86.64766 4341 ft 218 kts 334°
2026-04-26 18:10 35.86115 -86.65645 4284 ft 218 kts 333°
2026-04-26 18:10 35.87455 -86.66524 4098 ft 218 kts 334°
2026-04-26 18:10 35.88789 -86.67396 3932 ft 216 kts 334°
2026-04-26 18:11 35.90117 -86.68270 3794 ft 216 kts 334°
2026-04-26 18:11 35.91430 -86.69132 3657 ft 216 kts 334°
2026-04-26 18:11 35.92760 -86.70005 3533 ft 217 kts 334°
2026-04-26 18:11 35.94087 -86.70880 3453 ft 216 kts 333°
2026-04-26 18:12 35.95413 -86.71748 3285 ft 215 kts 334°
2026-04-26 18:12 35.96730 -86.72617 3114 ft 214 kts 333°
2026-04-26 18:12 35.98069 -86.73363 3014 ft 207 kts 350°
2026-04-26 18:12 35.99459 -86.73412 3008 ft 195 kts 10°
2026-04-26 18:13 36.00744 -86.73006 2827 ft 189 kts 20°
2026-04-26 18:13 36.01987 -86.72491 2612 ft 189 kts 20°
2026-04-26 18:13 36.03236 -86.72002 2369 ft 188 kts 20°
2026-04-26 18:13 36.03656 -86.71836 2276 ft 187 kts 19°
2026-04-26 18:14 36.05222 -86.71231 2021 ft 170 kts 20°
2026-04-26 18:14 36.06320 -86.70784 1759 ft 162 kts 20°
2026-04-26 18:14 36.07339 -86.70383 1561 ft 146 kts 20°
2026-04-26 18:14 36.08326 -86.70000 1374 ft 150 kts 21°
2026-04-26 18:15 36.09320 -86.69606 1174 ft 151 kts 20°
2026-04-26 18:15 36.10299 -86.69232 946 ft 143 kts 20°
2026-04-26 18:15 36.11233 -86.68860 732 ft 142 kts 20°
2026-04-26 18:15 36.12182 -86.68489 584 ft 140 kts 20°
2026-04-26 18:16 36.12948 -86.68184 581 ft 82 kts 17°
2026-04-26 18:16 36.13321 -86.67896 577 ft 11 kts 100°
2026-04-26 18:16 36.13268 -86.67875 577 ft 11 kts 193°
2026-04-26 18:17 36.13163 -86.67914 579 ft 19 kts 197°
2026-04-26 18:17 36.13046 -86.67861 577 ft 21 kts 132°
2026-04-26 18:17 36.12941 -86.67719 577 ft 24 kts 134°
2026-04-26 18:17 36.12821 -86.67565 577 ft 26 kts 134°
2026-04-26 18:18 36.12693 -86.67398 577 ft 28 kts 133°
2026-04-26 18:18 36.12554 -86.67217 577 ft 30 kts 133°
2026-04-26 18:18 36.12429 -86.67053 577 ft 16 kts 133°
2026-04-26 18:18 36.12453 -86.66977 577 ft 12 kts 29°
2026-04-26 18:19 36.12534 -86.66921 582 ft 15 kts 29°
2026-04-26 18:19 36.12631 -86.66852 582 ft 18 kts 30°
2026-04-26 18:19 36.12736 -86.66756 584 ft 20 kts 31°
2026-04-26 18:19 36.12793 -86.66735 577 ft 0 kts 22°
2026-04-26 18:20 36.12795 -86.66734 579 ft 2 kts 19°
2026-04-26 18:20 36.12853 -86.66713 579 ft 9 kts 39°
2026-04-26 18:20 36.12876 -86.66688 579 ft 0 kts 41°